Terminal Aerodrome Forecast
Issued by NWS Tuscon, AZ

Home | Current Version | Previous Version | Text Only | Print | Product List | Glossary On
Versions: 1 2 3 4 5 6 7 8 9 10 11 12 13
000
FTUS45 KTWC 281900 AAA
TAFTUS
TAF AMD
KTUS 281904Z 2819/0118 21020G30KT P6SM BKN060
     FM010300 19010KT P6SM BKN060
     FM010800 14004KT P6SM BKN060=

USA.gov is the U.S. government's official web portal to all federal, state and local government web resources and services.